TimeEDT,TemperatureF,Dew PointF,Humidity,Sea Level PressureIn,VisibilityMPH,Wind Direction,Wind SpeedMPH,Gust SpeedMPH,PrecipitationIn,Events,Conditions,WindDirDegrees,DateUTC
12:32 AM,35.6,32.0,87,30.00,3.0,West,16.1,23.0,0.03,Snow,Light Snow,270,2013-05-13 04:32:00
12:36 AM,35.6,32.0,87,29.99,2.0,West,12.7,23.0,0.03,Snow,Light Snow,280,2013-05-13 04:36:00
12:53 AM,35.6,30.2,81,29.99,5.0,West,8.1,21.9,0.03,Snow,Light Snow,280,2013-05-13 04:53:00
12:56 AM,35.1,30.9,85,30.03,7.0,West,11.5,-,0.03,Snow,Light Snow,280,2013-05-13 04:56:00
1:56 AM,35.1,32.0,89,30.02,8.0,West,5.8,-,0.00,,Mostly Cloudy,270,2013-05-13 05:56:00
2:56 AM,33.1,30.0,89,30.01,10.0,WSW,5.8,-,N/A,,Clear,250,2013-05-13 06:56:00
3:56 AM,32.0,28.9,88,30.01,10.0,West,3.5,-,N/A,,Clear,280,2013-05-13 07:56:00
4:56 AM,30.9,28.0,89,30.03,10.0,WSW,4.6,-,N/A,,Clear,240,2013-05-13 08:56:00
5:35 AM,30.2,28.4,93,29.99,9.0,WSW,6.9,-,N/A,,Scattered Clouds,250,2013-05-13 09:35:00
5:56 AM,30.9,28.9,92,30.03,8.0,West,6.9,-,N/A,,Mostly Cloudy,260,2013-05-13 09:56:00
6:05 AM,30.2,28.4,93,30.00,8.0,WSW,8.1,-,N/A,,Partly Cloudy,250,2013-05-13 10:05:00
6:56 AM,32.0,28.0,85,30.05,10.0,WSW,6.9,-,N/A,,Clear,250,2013-05-13 10:56:00
7:56 AM,34.0,30.0,85,30.07,10.0,West,8.1,-,N/A,,Mostly Cloudy,260,2013-05-13 11:56:00
8:56 AM,37.0,26.1,65,30.09,10.0,WNW,11.5,20.7,N/A,,Partly Cloudy,290,2013-05-13 12:56:00
9:56 AM,39.9,25.0,55,30.09,10.0,WNW,10.4,24.2,N/A,,Scattered Clouds,290,2013-05-13 13:56:00
10:56 AM,39.0,25.0,57,30.11,10.0,West,12.7,18.4,N/A,,Overcast,270,2013-05-13 14:56:00
11:56 AM,41.0,24.1,51,30.12,10.0,WNW,15.0,19.6,N/A,,Overcast,290,2013-05-13 15:56:00
1:56 PM,45.0,24.1,44,30.11,10.0,West,12.7,18.4,N/A,,Overcast,270,2013-05-13 17:56:00
2:56 PM,46.0,24.1,42,30.11,10.0,WNW,12.7,-,N/A,,Overcast,290,2013-05-13 18:56:00
4:56 PM,45.0,24.1,44,30.12,10.0,NW,11.5,18.4,N/A,,Overcast,320,2013-05-13 20:56:00
5:56 PM,44.1,24.1,45,30.12,10.0,WNW,11.5,20.7,N/A,,Overcast,290,2013-05-13 21:56:00
6:56 PM,43.0,23.0,45,30.13,10.0,NW,9.2,19.6,N/A,,Mostly Cloudy,320,2013-05-13 22:56:00
7:56 PM,41.0,21.9,47,30.14,10.0,NNW,8.1,-,N/A,,Partly Cloudy,330,2013-05-13 23:56:00
8:56 PM,39.0,21.0,49,30.15,10.0,NW,3.5,-,N/A,,Clear,310,2013-05-14 00:56:00
9:56 PM,37.9,21.0,51,30.17,10.0,West,3.5,-,N/A,,Clear,280,2013-05-14 01:56:00
10:56 PM,37.0,21.9,54,30.17,10.0,WNW,3.5,-,N/A,,Clear,300,2013-05-14 02:56:00
11:56 PM,33.1,23.0,66,30.17,10.0,Calm,Calm,-,N/A,,Clear,0,2013-05-14 03:56:00